Weather reports worldwide

Advertisment
Culdrose, United Kingdom (3809): temperature & dewpoint: 17.09.2018 02:00:00 - 23.09.2018 02:00:00 (BST)Culdrose, United Kingdom (3809): wind speed & gusts: 17.09.2018 02:00:00 - 23.09.2018 02:00:00 (BST)Culdrose, United Kingdom (3809): wind direction: 17.09.2018 02:00:00 - 23.09.2018 02:00:00 (BST)Culdrose, United Kingdom (3809): reduced air pressure: 17.09.2018 02:00:00 - 23.09.2018 02:00:00 (BST)Culdrose, United Kingdom (3809): visibility: 17.09.2018 02:00:00 - 23.09.2018 02:00:00 (BST)Culdrose, United Kingdom (3809): precipitation: 17.09.2018 02:00:00 - 23.09.2018 02:00:00 (BST)
Date & Time tt [°C] td [°C] ff [km/h] ff [kn] fx [km/h] fx [kn] dd ppp [hPa] vv [km] rr [mm]
23.09.2018 02:00:00 12,5 12,2 13 7 - - NNW 1013,1 30 0,0
23.09.2018 01:00:00 12,6 12,4 13 7 - - NNW 1012,9 23 0,0
23.09.2018 00:00:00 13,0 12,9 15 8 - - NW 1012,4 25 0,0
22.09.2018 23:00:00 13,4 13,4 18 10 - - WNW 1012,2 27 0,0
22.09.2018 22:00:00 14,2 14,2 15 8 - - WNW 1011,3 10 0,0
22.09.2018 21:00:00 15,2 15,2 16 9 - - WSW 1010,9 11 0,0
22.09.2018 20:00:00 15,7 15,7 26 14 48 26 WSW 1009,7 0,1 0,0
22.09.2018 19:00:00 16,1 16,1 28 15 54 29 WSW 1009,2 0,2 0,0
22.09.2018 18:00:00 16,2 16,2 34 18 54 29 WSW 1008,8 0,1 0,0
22.09.2018 17:00:00 16,3 16,3 31 17 50 27 WSW 1008,8 0,2 0,2
22.09.2018 16:00:00 16,4 16,4 34 18 48 26 WSW 1009,0 0,2 0,2
22.09.2018 15:00:00 15,0 15,0 5 3 - - SSW 1009,0 2,5 3,0
22.09.2018 14:00:00 13,5 13,4 37 20 52 28 E 1009,2 3,0 3,4
22.09.2018 13:00:00 13,0 12,7 42 23 57 31 ESE 1011,0 4,7 3,0
22.09.2018 12:00:00 12,3 12,0 42 23 54 29 ESE 1012,5 1,3 3,0
22.09.2018 11:00:00 11,6 11,2 34 18 46 25 ESE 1014,8 3,1 1,6
22.09.2018 10:00:00 11,1 10,8 24 13 - - ESE 1016,1 12 2,0
22.09.2018 09:00:00 10,9 10,5 16 9 - - SSE 1017,9 3,9 1,4
22.09.2018 08:00:00 10,8 9,8 15 8 - - S 1018,5 1,9 0,6
22.09.2018 07:00:00 11,6 10,5 9 5 - - SE 1019,1 10 0,4
22.09.2018 06:00:00 11,7 10,6 11 6 - - SSE 1019,2 15 0,6
22.09.2018 05:00:00 12,4 9,7 8 4 - - SSE 1019,7 17 0,0
22.09.2018 04:00:00 12,9 9,3 9 5 - - SW 1020,4 26 0,0
22.09.2018 03:00:00 13,3 9,4 13 7 - - WSW 1021,1 26 0,0
22.09.2018 02:00:00 13,3 9,2 13 7 - - WSW 1021,0 27 0,0
22.09.2018 01:00:00 13,2 9,3 13 7 - - W 1021,1 25 0,0
22.09.2018 00:00:00 13,2 9,4 16 9 - - W 1021,0 26 0,0
21.09.2018 23:00:00 13,0 9,1 16 9 - - W 1021,2 26 0,0
21.09.2018 22:00:00 12,8 8,4 16 9 - - W 1021,0 25 0,0
21.09.2018 21:00:00 13,0 8,3 18 10 - - W 1020,5 24 0,0
21.09.2018 20:00:00 13,2 7,8 18 10 - - W 1020,0 24 0,0
21.09.2018 19:00:00 13,5 7,7 22 12 - - W 1019,4 10 0,0
21.09.2018 18:00:00 13,9 6,9 29 16 46 25 W 1019,0 28 0,0
21.09.2018 17:00:00 14,6 6,8 35 19 48 26 W 1018,5 28 0,0
21.09.2018 16:00:00 14,9 9,4 34 18 57 31 W 1017,9 30 0,0
21.09.2018 15:00:00 14,9 7,9 37 20 55 30 W 1017,4 27 0,0
21.09.2018 14:00:00 14,5 7,5 31 17 63 34 W 1016,9 10 0,0
21.09.2018 13:00:00 14,4 6,7 34 18 55 30 W 1016,1 10 0,0
21.09.2018 12:00:00 13,2 6,7 28 15 61 33 W 1015,7 10 0,2
21.09.2018 11:00:00 14,2 8,3 29 16 57 31 W 1014,7 10 0,0
21.09.2018 10:00:00 13,0 6,7 28 15 52 28 W 1013,9 10 0,0
21.09.2018 09:00:00 12,0 6,8 26 14 54 29 W 1013,0 10 0,0
21.09.2018 08:00:00 10,9 6,9 22 12 - - W 1012,1 10 0,0
21.09.2018 07:00:00 10,6 7,5 22 12 - - W 1011,0 20 0,6
21.09.2018 06:00:00 10,2 7,0 22 12 - - WNW 1010,3 10 0,0
21.09.2018 05:00:00 10,2 6,8 22 12 46 25 WNW 1009,5 10 0,0
21.09.2018 04:00:00 10,3 7,6 26 14 52 28 WNW 1008,5 10 0,0
21.09.2018 03:00:00 10,7 8,5 29 16 55 30 WNW 1007,3 8 0,0
21.09.2018 02:00:00 11,4 9,8 29 16 72 39 WNW 1005,5 10 0,2
21.09.2018 01:00:00 14,0 10,8 26 14 54 29 WSW 1002,7 10 0,0
21.09.2018 00:00:00 13,7 11,4 29 16 59 32 W 1002,9 10 0,0
20.09.2018 23:00:00 14,0 11,6 34 18 68 37 W 1002,1 14 0,0
20.09.2018 22:00:00 15,1 14,9 34 18 98 53 WSW 1000,8 5 0,6
20.09.2018 21:00:00 16,6 16,6 52 28 85 46 SSW 999,4 2,0 4,6
20.09.2018 20:00:00 16,7 16,7 46 25 85 46 SSW 1000,7 2,0 6,0
20.09.2018 19:00:00 16,7 16,4 44 24 74 40 S 1001,6 2,4 2,2
20.09.2018 18:00:00 16,9 16,4 39 21 70 38 SSW 1003,6 2,4 0,2
20.09.2018 17:00:00 17,3 16,3 35 19 67 36 SSW 1004,6 5 0,0
20.09.2018 16:00:00 17,3 16,4 37 20 68 37 SSW 1005,9 5 0,0
20.09.2018 15:00:00 17,1 16,3 37 20 65 35 SSW 1007,0 5 0,0
20.09.2018 14:00:00 17,7 16,6 35 19 70 38 SSW 1007,5 4,0 0,0
20.09.2018 13:00:00 17,0 16,2 34 18 63 34 SSW 1008,1 4,0 0,0
20.09.2018 12:00:00 17,0 16,2 37 20 67 36 SSW 1008,9 4,0 0,0
20.09.2018 11:00:00 16,8 16,1 35 19 59 32 SSW 1009,2 4,0 0,0
20.09.2018 10:00:00 16,7 16,0 31 17 55 30 SSW 1009,9 5 0,0
20.09.2018 09:00:00 16,4 15,9 34 18 54 29 SSW 1010,3 5 0,2
20.09.2018 08:00:00 16,3 15,8 31 17 52 28 SSW 1010,6 4,0 0,0
20.09.2018 07:00:00 16,3 15,8 28 15 48 26 SSW 1010,8 4,0 0,0
20.09.2018 06:00:00 16,2 15,9 29 16 55 30 SSW 1011,1 3,5 0,6
20.09.2018 05:00:00 16,4 15,8 34 18 54 29 SSW 1011,4 4,5 0,0
20.09.2018 04:00:00 16,3 15,7 31 17 52 28 SSW 1011,8 8 0,0
20.09.2018 03:00:00 16,3 15,9 31 17 55 30 SSW 1011,9 4,0 0,0
20.09.2018 02:00:00 16,2 15,9 31 17 55 30 SSW 1012,2 7 0,0
20.09.2018 01:00:00 16,2 16,1 34 18 52 28 SSW 1012,5 5 0,0
20.09.2018 00:00:00 15,8 15,7 26 14 - - SSW 1013,2 2,0 0,8
19.09.2018 23:00:00 13,7 13,6 0 0 - - N 1013,9 2,0 0,6
19.09.2018 22:00:00 13,8 13,6 9 5 - - W 1014,6 2,4 0,6
19.09.2018 21:00:00 14,1 13,6 13 7 - - WSW 1014,8 2,8 0,4
19.09.2018 20:00:00 14,9 13,9 11 6 - - SSW 1014,4 4,0 0,0
19.09.2018 19:00:00 14,7 14,0 8 4 - - WSW 1014,4 4,0 0,0
19.09.2018 18:00:00 15,1 13,9 15 8 - - W 1014,6 4,0 0,0
19.09.2018 17:00:00 15,7 15,2 18 10 - - WSW 1014,1 4,0 0,0
19.09.2018 16:00:00 16,0 15,5 21 11 - - WSW 1013,6 7 0,2
19.09.2018 15:00:00 16,1 14,9 16 9 55 30 WSW 1013,4 4,0 0,0
19.09.2018 14:00:00 17,8 15,3 31 17 55 30 SW 1012,9 8 0,0
19.09.2018 13:00:00 17,9 14,9 34 18 59 32 SW 1012,4 8 0,0
19.09.2018 12:00:00 18,9 16,1 34 18 63 34 SW 1011,9 8 0,0
19.09.2018 11:00:00 18,3 16,0 34 18 63 34 SSW 1011,3 8 0,0
19.09.2018 10:00:00 17,5 16,0 34 18 59 32 SSW 1011,1 10 0,0
19.09.2018 09:00:00 16,8 15,7 37 20 61 33 SSW 1010,5 10 0,0
19.09.2018 08:00:00 16,4 15,3 37 20 59 32 SSW 1010,4 8 0,0
19.09.2018 07:00:00 16,4 15,5 34 18 57 31 SSW 1010,0 8 0,0
19.09.2018 06:00:00 16,4 15,8 34 18 52 28 SSW 1010,0 5 0,0
19.09.2018 05:00:00 16,2 15,6 34 18 50 27 SSW 1010,1 5 0,0
19.09.2018 04:00:00 16,3 15,8 26 14 46 25 SSW 1010,3 6 0,0
19.09.2018 03:00:00 16,0 15,6 26 14 - - SSW 1010,9 6 0,0
19.09.2018 02:00:00 15,8 15,4 24 13 - - SSW 1011,2 6 0,0
19.09.2018 01:00:00 15,8 15,4 24 13 - - SW 1011,5 5 0,0
19.09.2018 00:00:00 16,0 15,6 26 14 - - SSW 1011,3 4,0 0,0
18.09.2018 23:00:00 16,5 16,0 29 16 52 28 SW 1011,5 3,0 0,0
18.09.2018 22:00:00 16,6 16,1 34 18 55 30 SSW 1010,9 5 0,0
18.09.2018 21:00:00 16,8 15,9 31 17 54 29 SSW 1010,6 3,0 0,0
18.09.2018 20:00:00 16,9 16,0 29 16 54 29 SSW 1010,7 5 0,0
18.09.2018 19:00:00 16,9 16,0 28 15 52 28 SSW 1010,6 6 0,0
18.09.2018 18:00:00 17,0 15,8 29 16 52 28 SSW 1010,7 6 0,0
18.09.2018 17:00:00 17,7 16,0 31 17 52 28 SSW 1010,7 8 0,0
18.09.2018 16:00:00 17,8 16,0 29 16 52 28 SSW 1010,6 8 0,0
18.09.2018 15:00:00 17,8 15,9 29 16 50 27 SSW 1010,6 10 0,0
18.09.2018 14:00:00 17,3 15,8 26 14 48 26 SSW 1010,5 10 0,0
18.09.2018 13:00:00 17,6 15,7 29 16 50 27 SSW 1010,2 8 0,0
18.09.2018 12:00:00 17,7 15,9 29 16 50 27 SSW 1010,0 10 0,0
18.09.2018 11:00:00 16,7 15,5 28 15 48 26 SSW 1009,5 10 0,0
18.09.2018 10:00:00 16,7 15,0 31 17 50 27 SSW 1008,9 14 0,0
18.09.2018 09:00:00 16,0 14,4 24 13 - - SW 1008,7 16 0,0
18.09.2018 08:00:00 15,3 13,6 22 12 48 26 WSW 1007,8 10 0,0
18.09.2018 07:00:00 15,6 13,0 22 12 61 33 WSW 1006,8 10 0,0
18.09.2018 06:00:00 15,3 12,8 28 15 59 32 WSW 1005,9 7 0,0
18.09.2018 05:00:00 15,5 13,8 29 16 63 34 WSW 1004,8 4,0 0,0
18.09.2018 04:00:00 15,3 15,0 34 18 67 36 WSW 1003,7 4,0 0,2
18.09.2018 03:00:00 15,7 15,6 44 24 70 38 SW 1002,7 4,0 0,0
18.09.2018 02:00:00 16,1 15,9 42 23 74 40 SW 1002,0 3,0 0,0
18.09.2018 01:00:00 16,4 16,2 42 23 78 42 SSW 1001,5 1,5 0,2
18.09.2018 00:00:00 16,9 16,3 41 22 74 40 S 1001,5 4,0 0,0
17.09.2018 23:00:00 17,3 16,2 37 20 78 42 S 1002,2 5 0,0
17.09.2018 22:00:00 17,3 16,2 31 17 67 36 S 1003,2 7 0,0
17.09.2018 21:00:00 17,3 16,0 28 15 61 33 S 1004,3 8 0,0
17.09.2018 20:00:00 17,0 15,8 28 15 54 29 S 1005,1 8 0,0
17.09.2018 19:00:00 17,1 15,6 26 14 55 30 S 1005,9 8 0,0
17.09.2018 18:00:00 17,4 15,6 28 15 57 31 SSE 1006,8 8 0,0
17.09.2018 17:00:00 17,2 15,2 28 15 63 34 S 1007,9 8 0,0
17.09.2018 16:00:00 18,6 14,7 34 18 67 36 S 1008,7 10 0,0
17.09.2018 15:00:00 19,0 14,8 29 16 61 33 S 1009,9 10 0,0
17.09.2018 14:00:00 18,2 14,9 28 15 63 34 S 1011,0 10 0,0
17.09.2018 13:00:00 17,7 15,8 29 16 54 29 S 1011,7 10 0,0
17.09.2018 12:00:00 17,3 16,3 22 12 - - S 1012,4 10 0,0
17.09.2018 11:00:00 17,6 16,8 22 12 - - S 1013,0 16 0,0
17.09.2018 10:00:00 17,0 17,0 21 11 - - S 1013,3 6 0,0
17.09.2018 09:00:00 16,6 16,5 22 12 - - S 1013,7 1,5 0,0
17.09.2018 08:00:00 16,8 16,8 18 10 - - S 1013,9 0,1 0,0
17.09.2018 07:00:00 16,9 16,9 16 9 - - S 1014,0 0,3 0,4
17.09.2018 06:00:00 16,8 16,8 13 7 - - S 1014,1 - 0,0
17.09.2018 05:00:00 16,5 16,5 16 9 - - S 1014,6 0,4 0,0
17.09.2018 04:00:00 16,4 16,4 16 9 - - SSW 1015,2 0,3 0,4
17.09.2018 03:00:00 16,7 16,7 18 10 - - SSW 1015,6 0,3 0,0
17.09.2018 02:00:00 16,6 16,6 24 13 - - SW 1016,0 0,3 0,4

tt = temperature
td = dewpoint
ff = wind speed
fx = gusts
dd = wind direction
ppp = reduced air pressure
vv = visibility
rr = precipitation

Next stations